Location: Austin
(30.3000°N, 97.7500°W)
Time: 11:56:34
(UTC-05:00)

Cosmos 2279 Rocket - Pass Details

Date: 03 April 2024
Orbit: 963 x 978 km, 82.9° (Epoch: 21 April)

Event Time Altitude Azimuth Distance (km) Brightness Sun altitude
Rises 04:28:48 0° 359° (N) 3,674 7.4 -34.9°
Reaches altitude 10° 04:31:22 10° 3° (N) 2,722 6.7 -34.5°
Maximum altitude 04:37:31 61° 83° (E) 1,091 4.3 -33.3°
Enters shadow 04:37:37 61° 87° (E) 1,092 4.3 -33.3°
